Location: Passau
(48.5830°N, 13.4830°E)
Time: 05:30:40
(UTC+02:00)

Vanguard 1 - Pass Details

Date: 29 July 2021
Orbit: 652 x 3831 km, 34.3° (Epoch: 16 September)

Event Time Altitude Azimuth Distance (km) Brightness Sun altitude
Rises 11:51:58 0° 208° (SSW) 3,154 12.9 55.9°
Reaches altitude 10° 11:55:05 10° 184° (S) 2,473 12.7 56.2°
Maximum altitude 11:58:21 15° 148° (SSE) 2,420 13.0 56.5°
Drops below altitude 10° 12:02:27 10° 115° (ESE) 3,260 13.3 56.9°
Sets 12:07:41 0° 96° (E) 4,877 13.9 57.3°
